www.pogodaiklimat.ru

ПОГОДА в Дэнвилле, KY

  • Прогноз погоды в Дэнвилле
  • Монитор погоды в Дэнвилле
  • Климат в Дэнвилле

АРХИВ ПОГОДЫ в Дэнвилле

Время (UTC), дата Ветер
(напр.,м/с)
 
Видим.   Явления Облачность Т
(С)
Тd
(С)
f
(%)
Тe
(С)
Тes
(С)
Комфортность

P
(гПа)

Po
(гПа)
Тmin
(С)
Tmax
(С)
R
(мм)
SD
(см)
03:35 24.03   16 км    ясно  +3.0  -3.0  65  +2  +2      987.6         
03:55 24.03   16 км    ясно  +3.0  -1.0  75  +2  +2      987.2         
04:15 24.03   16 км    ясно  +3.0  -2.0  70  +2  +2      986.9         
04:35 24.03   16 км    ясно  +3.0  -3.0  65  +2  +2      986.9         
04:55 24.03   16 км    ясно  +3.0  -3.0  65  +2  +2      986.6         
05:15 24.03   16 км    ясно  +4.0  -2.0  65  +3  +3      986.6         
05:35 24.03   16 км    5/0 3600 м
[средняя] 
+3.0  0.0  81  +2  +2      986.6         
05:55 24.03   16 км    ясно  +4.0  -1.0  70  +3  +3      986.6         
06:15 24.03   16 км    ясно  +3.0  0.0  81  +2  +2      986.6         
06:35 24.03   16 км    ясно  +3.0  -1.0  75  +2  +2      986.6         
06:55 24.03   16 км    ясно  +2.0  -1.0  80  +1  +1      986.6         
07:15 24.03   16 км    ясно  +1.0  -1.0  86  -0  -0      986.3         
07:35 24.03   16 км    ясно  +2.0  -2.0  75  +1  +1      985.9         
07:55 24.03 Ю  16 км    ясно  +2.0  -2.0  75  -0  -0      985.9         
08:15 24.03   16 км    ясно  +1.0  -1.0  86  -0  -0      985.9         
08:35 24.03   16 км    ясно  +1.0  -1.0  86  -0  -0      985.9         
08:55 24.03 Ю  16 км    ясно  +1.0  -1.0  86  -2  -2      985.9         
09:15 24.03   16 км    ясно  +1.0  -1.0  86  -0  -0      985.9         
09:35 24.03 Ю  16 км    ясно  +1.0  -1.0  86  -3  -3      985.9         
09:55 24.03 Ю  16 км    ясно  +1.0  -1.0  86  -3  -3      985.9         
10:15 24.03 ЮЗ  16 км    ясно  +1.0  -1.0  86  -3  -3      985.9         
10:35 24.03 Ю  16 км    ясно  +1.0  -1.0  86  -4  -4      985.9         
10:55 24.03 Ю  16 км    ясно  +2.0  -2.0  75  -2  -2      985.6         
11:15 24.03   16 км    ясно  +2.0  0.0  87  +1  +1      985.9         
11:35 24.03 ЮЗ  16 км    5/0 3600 м
[средняя] 
+4.0  -3.0  60  +2  +2      985.9         
11:55 24.03 ЮЗ  16 км    5/0 3600 м
[средняя] 
+5.0  -3.0  56  +2  +2      985.9         
12:15 24.03 ЮЗ  16 км    ясно  +6.0  -2.0  56  +4  +5      985.9         
12:35 24.03 ЮЗ  16 км    ясно  +7.0  -3.0  49  +5  +6      985.9         
12:55 24.03 ЮЗ  16 км    ясно  +8.0  -3.0  46  +6  +7      985.9         
13:15 24.03 ЮЗ  16 км    ясно  +9.0  -3.0  43  +7  +11      985.9         
13:35 24.03 ЮЗ  16 км    ясно  +10.0  -3.0  40  +8  +12      985.9         
13:55 24.03 Ю  16 км    ясно  +11.0  -3.0  37  +10  +14      986.3         
14:15 24.03 ЮЗ  16 км    ясно  +12.0  -3.0  35  +12  +21      986.3         
14:35 24.03 ЮЗ  16 км    ясно  +13.0  -2.0  35  +12  +20      985.9         
14:55 24.03 Ю  16 км    ясно  +14.0  -2.0  33  +13  +19      985.6         
15:15 24.03 Ю  16 км    ясно  +15.0  -2.0  31  +14  +21      985.3         
15:30 24.03 Ю  16 км    ясно  +16.0  -1.0  31  +15  +23      985.0         
15:55 24.03 Ю  16 км    ясно  +17.0  -2.0  27  +17  +27      984.6         
16:15 24.03 ЮЗ  16 км    ясно  +19.0  -1.0  26  +19  +27      984.3         
16:35 24.03 ЮЗ  4
{8} 
16 км    ясно  +20.0  -1.0  24  +20  +27      984.0         
16:55 24.03 ЮЗ  4
{8} 
16 км    ясно  +20.0  0.0  26  +20  +27      984.0         
17:15 24.03 З  16 км    5/0 2400 м
[средняя] 
+19.0  0.0  28  +19  +26      983.7         
17:35 24.03 СЗ  16 км    5/0 2400 м
[средняя] 
+18.0  -1.0  28  +17  +20      983.3         
17:55 24.03 СЗ  16 км    5/0 3300 м
[средняя] 
+18.0  0.0  30  +18  +23      983.3         
18:15 24.03 СЗ  7
{8} 
16 км    8/0 2400 м
[средняя] 
+17.0  0.0  32  +16  +17      983.0         
18:35 24.03 СЗ  5
{9} 
16 км    5/0 2400 м
[средняя] 
+16.0  0.0  34  +15  +18      983.0         
18:55 24.03 СЗ  5
{8} 
16 км    8/0 2700 м
[средняя] 
+16.0  0.0  34  +15  +17      983.3         
19:15 24.03 СЗ  16 км    8/0 2100 м
[средняя] 
+16.0  +1.0  36  +16  +19      983.0         

 

Местоположение метеостанции Stuart Powell Field Airport: широта 37.5776 долгота -84.7695 высота над уровнем моря 312 м.

В архиве по умолчанию представлена погода в Дэнвилле за последние 1-2 суток. Обновление информации о фактической погоде в базе происходит ежечасно! Архивные данные за месяц целиком и за предыдущие месяцы Вы можете получить, выбрав интересующий диапазон дат из раскрывающегося списка и нажав кнопку "Ввод!".

Внимание! Архив погоды МЕТАР в базе сайта хранится не более 60 дней. Нет смысла пытаться выбрать более раннюю дату.

Внимание! Время в таблицах - всемирное. Для получения местного времени необходимо прибавить поправку, которая в Дэнвилле равна -5 ч.

Ветер - указаны скорость ветра в м/с и направление, откуда дует ветер: С - северный, СВ - северо-восточный, В - восточный, ЮВ - юго-восточный, Ю - южный, ЮЗ - юго-западный, З - западный, СЗ - северо-западный.
Видимость - горизонтальная дальность видимости в метрах или километрах. При видимости от 1 до 10 км при отсутствии осадков обычно наблюдается дымка, при ухудшении видимости до 1 км и менее - туман. В сухую погоду видимость может ухудшаться дымом, пылью или мглою.
Атмосферные явления - указаны явления, наблюдавшиеся в указанный момент времени.
Облачность - указаны через наклонную черту верхняя и нижняя облачность в баллах и высота нижней границы облаков в метрах. Внимание: облачность, как и прочие метеорологические величины в США измеряются автоматическими метеостанциями. Указанные значения в баллах носят условный характер и показывают процент времени, в течение которого, в среднем, лазерный луч высотомера отражался от облаков обратно.
T - Температура воздуха - температура, измеренная на высоте 2 м над землей.
Td - Температура точки росы - температура, при понижении до которой содержащийся в воздухе водяной пар достигнет насыщения.
f - Относительная влажность воздуха - влажноcть воздуха, измеренная на высоте 2 м над землей.
Te - Эффективная температура - температура, которую ощущает одетый по сезону человек в тени. Характеристика душности погоды. При расчете учитывается влияние влажности воздуха и скорости ветра на теплоощущения человека.
Tes - Эффективная температура на солнце - температура, которую ощущает человек, с поправкой на солнечный нагрев. Характеристика знойности погоды. Зависит от высоты солнца над горизонтом, облачности и скорости ветра. Ночью, в пасмурную погоду, а также при ветре 12 м/с и более поправка равна нулю.
P - Атмосферное давление - приведенное к уровню моря атмосферное давление.
Po - Атмосферное давление - измеренное на уровне метеостанции атмосферное давление.
Tmin - Минимальная температура - минимум температуры воздуха на высоте 2 м над землей.
Tmax - Максимальная температура - максимум температуры воздуха на высоте 2 м над землей.
R - Количество осадков - Количество выпавших осадков за 3 или 6 часов, мм.
SD - Снежный покров - Высота снежного покрова, см.